Regional Weather Roundup
Issued by NWS Grand Forks, ND

Home | Current Version | Previous Version | Graphics & Text | Print | Product List | Glossary On
Versions: 1 2 3 4 5 6 7 8 9 10 11 12 13 14 15 16 17 18 19 20 21 22 23 24 25 26 27 28 29 30 31 32 33 34 35 36 37 38 39 40 41 42 43 44 45 46 47 48 49 50
000
ASUS43 KFGF 030731
RWRFGF
PRAIRIE TO PINES  WEATHER ROUNDUP
NATIONAL WEATHER SERVICE EASTERN NORTH DAKOTA/GRAND FORKS ND
200 AM CDT WED SEP 03 2014

 **SATELLITE DATA USED TO AUGMENT SKY COVER AT AUTOMATED STATIONS**
 *****  WEATHER ACROSS EASTERN NORTH DAKOTA  *****

CITY           SKY/WX    TMP DP  RH WIND       PRES   REMARKS
GRAND FORKS    CLEAR     54  51  90 NW3       29.73S
GRAND FRKS AFB CLEAR     52  52  99 NW5       29.74S
GRAND FRKS NWS   N/A     54 N/A N/A NW3         N/A
DEVILS LAKE    CLEAR     52  46  82 CALM      29.74F
FARGO          CLEAR     63  55  75 S7        29.74S
WAHPETON ARPT  SUNNY     57  54  88 E5        29.78F
$$

 ***** WEATHER ACROSS CENTRAL AND WESTERN NORTH DAKOTA  *****

CITY           SKY/WX    TMP DP  RH WIND       PRES   REMARKS
BISMARCK       PTCLDY    53  50  89 NE3       29.76F
MINOT          PTCLDY    54  49  83 S3        29.73F
JAMESTOWN      CLEAR     52  50  93 CALM      29.76S
MINOT AFB      PTCLDY    51  49  93 S5        29.72F
GARRISON         N/A     55  51  86 E5        29.74F
WILLISTON      PTCLDY    50  46  86 N3        29.71F
DICKINSON      CLEAR     50  43  77 E3        29.73F
HETTINGER      CLEAR     52  44  74 E5        29.76F
$$

 *****  OTHER AIRPORT OBSERVATIONS IN OUR AREA  *****

CITY           SKY/WX    TMP DP  RH WIND       PRES   REMARKS
WALHALLA       FAIR      50  50 100 CALM      29.75S
GRAFTON AIRPOR FAIR      54  54 100 CALM      29.74S
VALLEY CITY AR FAIR      54  54 100 S3        29.76S
CANDO          FAIR      48  46  93 CALM      29.75F
CAVALIER APRT  FAIR      52  52 100 NW3       29.74S FOG
GWINNER        SUNNY     59  57  94 SW6       29.77F
SHEYENNE NWR     N/A     58  54  85 SW3       29.95S
ROLLA          FAIR      46  46 100 W5        29.76S
 ***** THE ABOVE OBSERVATIONS ARE NON NWS ARE NOT QUALITY
       CONTROLLED AND MAY MIS-REPORT RAIN FOR SNOW...
$$

  *****  WEATHER ACROSS NORTHERN MINNESOTA  *****

CITY           SKY/WX    TMP DP  RH WIND       PRES   REMARKS
FLAG ISLAND    CLEAR     55  54  94 CALM      29.74R
WARROAD        CLEAR     50  46  87 CALM      29.76R
ROSEAU         HAZE      52  46  82 CALM      29.75S VSB 1/2
HALLOCK        FOG       52  48  87 CALM      29.74S VSB 3/4
THF RVR FALLS  CLEAR     55  52  88 CALM      29.75S
BAUDETTE       CLEAR     51  50  96 CALM      29.75S FOG
WASKISH        CLEAR     54  52  94 SE5       29.76S
CROOKSTON      CLEAR     54  52  94 S6        29.75R
$$
  *****  WEATHER ACROSS CENTRAL AND WEST MINNESOTA  *****

CITY           SKY/WX    TMP DP  RH WIND       PRES   REMARKS
FOSSTON        MOCLDY    54  52  94 S3        29.77S
BEMIDJI        CLEAR     59  55  86 SW3       29.77S
PARK RAPIDS    CLEAR     60  55  83 S5        29.80S
ELBOW LAKE     FAIR      59  56  89 S10       29.78F
WADENA         PTCLDY    57  54  88 S5        29.80S
DETROIT LAKES  CLEAR     63  55  77 S8        29.80S
MOORHEAD       CLEAR     64  57  77 S6        29.76S
FERGUS FALLS   CLEAR     61  54  77 CALM      29.79S
MORRIS MN      CLEAR     59  55  88 S9        29.79S
STAPLES        PTCLDY    61  54  77 S8        29.81S
$$
  *****  WEATHER ELSEWHERE ACROSS MINNESOTA  *****

CITY           SKY/WX    TMP DP  RH WIND       PRES   REMARKS
DULUTH         PTCLDY    59  54  83 CALM      29.84R
INTRNTL FALLS  CLEAR     52  51  97 SW3       29.75R
ELY            MOCLDY    54  52  94 SW5       29.79S
CLOQUET        PTCLDY    57  52  82 SW3       29.84S
WHEATON        CLEAR     57  55  94 S7        29.78F
BRAINERD       CLEAR     58  54  86 S7        29.83R
HIBBING        FOG       50  49  96 CALM      29.81F VSB 3/4
ALEXANDRIA     PTCLDY    64  56  75 S10       29.83S
SAINT CLOUD    PTCLDY    62  56  80 S5        29.84F
MINNEAPOLIS    PTCLDY    65  57  75 S6        29.88S
$$

  *****  WEATHER ACROSS SOUTH DAKOTA  *****

CITY           SKY/WX    TMP DP  RH WIND       PRES   REMARKS
SIOUX FALLS    CLEAR     66  57  72 S10       29.84F
BROOKINGS      NOT AVBL
WATERTOWN      CLEAR     59  56  89 S9        29.81F
HURON          MOCLDY    66  58  75 S9        29.77F
SISSETON         N/A     67  58  72 SW14G23   29.75F
ABERDEEN       CLEAR     60  58  92 SW3       29.76S
MITCHELL       PTCLDY    66  59  78 S14       29.78F
PIERRE         CLEAR     62  58  86 E8        29.70F
MOBRIDGE       CLEAR     61  54  77 E13       29.71F
RAPID CITY     CLEAR     52  46  80 CALM      29.73F
$$

  *****  SOME WEATHER IN NEARBY STATES *****

CITY           SKY/WX    TMP DP  RH WIND       PRES   REMARKS
GLASGOW MT     PTCLDY    54  46  74 E9        29.67F
GREAT FALLS MT MOCLDY    54  40  59 S6        29.66F
CHEYENNE WY    CLEAR     58  41  53 W10       29.99F
SCOTTSBLUFF NE CLEAR     61  54  77 E8        29.82F
OMAHA NE       CLEAR     66  58  75 SE6       29.92S
DES MOINES IA  CLEAR     66  59  78 SE5       29.95S
DAVENPORT IA   CLEAR     59  57  93 CALM      29.99F
CHICAGO IL     PTCLDY    67  59  75 W6        29.98S
EAU CLAIRE WI  CLEAR     58  56  93 SW3       29.91R
LA CROSSE WI   CLEAR     64  61  90 S5        29.94R
$$

  *****  SOME NATIONAL WEATHER *****

CITY           SKY/WX    TMP DP  RH WIND       PRES   REMARKS
LA GUARDIA NY  PTCLDY    76  64  66 NW15G22   29.84R
RALEIGH NC     MOCLDY    74  69  85 SW9       30.01F
ATLANTA GA     PTCLDY    73  70  90 SW6       30.04F
NEW ORLEANS LA CLOUDY    76  72  87 SE8       29.96S
OKLAHOMA CITY  PTCLDY    78  67  68 SE14      29.92S
ALBUQUERQUE NM PTCLDY    76  40  27 W7        30.04S
SALT LAKE CITY PTCLDY    74  42  31 SE14      29.76F
LOS ANGELES CA MOCLDY    68  63  84 CALM      29.82R
BOISE ID       CLEAR     67  39  35 W7        29.72R
SEATTLE WA     LGT RAIN  57  52  83 SW8       29.91S
$$

*** WEATHER ACROSS MANITOBA...SASKATCHEWAN AND ONTARIO ***
                ***ONTARIO***

CITY           SKY/WX    TMP DP  RH WIND       PRES   REMARKS
GERALDTON      CLEAR     50  48  93 SW2       29.74F
THUNDER BAY    CLOUDY    55  54  94 SW5       29.78S
SIOUX LOOKOUT  PTCLDY    48  48 100 CALM      29.72S
TORONTO        CLEAR     61  57  88 W7        29.94R
BIG TROUT LK   NOT AVBL
PICKLE LAKE    NOT AVBL
DRYDEN         CLEAR     54  50  87 SW8       29.74R
KENORA         CLEAR     55  52  88 W5        29.75R
$$
                *** MANITOBA***

CITY           SKY/WX    TMP DP  RH WIND       PRES   REMARKS
BRANDON        MOCLDY    50  48  93 CALM      29.74S
DAUPHIN        CLOUDY    50  48  93 W5        29.71F
ISLAND LAKE    PTCLDY    52  52 100 CALM      29.63S
PILOT MOUND      N/A     50  48  93 SE5         N/A
THE PAS        CLEAR     45  45 100 NE3       29.70R
THOMPSON       MOCLDY    48  48 100 NW7       29.64R
WINNIPEG       CLEAR     54  52  94 S7        29.74S
LYNN LAKE      MOCLDY    43  41  93 MISG      29.70R
CHURCHILL      LGT RAIN  46  45  93 E9        29.65R
GILLAM         PTCLDY    52  52 100 NW12      29.56R
$$
                ***SASKATCHEWAN***

CITY           SKY/WX    TMP DP  RH WIND       PRES   REMARKS
ESTEVAN        PTCLDY    52  48  87 SE5       29.72F
KINDERSLEY     MOCLDY    50  48  93 CALM      29.74R
LLOYDMINSTER   MOCLDY    46  46 100 NW5       29.76S
PRINCE ALBERT  CLOUDY    52  50  93 W5        29.73R
REGINA         MOCLDY    55  52  88 NE6       29.74S
YORKTON        LGT RAIN  52  50  93 SW5       29.73S
N. BATTLEFORD  CLOUDY    48  48 100 N5        29.76R
LA RONGE       PTCLDY    41  39  93 CALM      29.74R
SASKATOON      MOCLDY    52  50  93 S5        29.74S
SWIFT CURRENT  CLOUDY    52  50  93 NE9       29.72R
$$
NOTE: THESE ARE AUTOMATED STATIONS WITH LIMITED QUALITY CONTROL
      "FAIR" INDICATES FEW OR NO CLOUDS BELOW 12,000 FEET WITH NO
      SIGNIFICANT WEATHER AND/OR OBSTRUCTIONS TO VISIBILITY.
      SKY/WX - SKY CONDITION AND SIGNIFICANT WEATHER.
      TMP - AIR TEMPERATURE.    DP   - DEWPOINT TEMPERATURE.
      RH  - RELATIVE HUMIDITY.  PRES - PRESSURE.
      HX  - HEAT INDEX.         WCI  - WIND CHILL INDEX.
$


USA.gov is the U.S. government's official web portal to all federal, state and local government web resources and services.